Wind_Speed
19 19 20 20 21 21 21 21 21 21 21 21 20 20 23 28 25 4 3 2 1 2 1 2 0 1 2 2 2 3 4 1 1 3 8 6 2 1 2 7 2 1 6 9 27
21 21 21 21 22 22 23 22 21 21 21 20 19 18 21 27 12 3 1 3 3 2 3 4 1 3 3 2 3 4 3 5 5 4 3 4 2 6 3 4 2 4 11 28 29
22 22 23 22 22 23 23 23 23 21 20 19 17 16 19 16 3 2 2 2 2 2 3 4 4 3 3 1 1 1 3 2 3 5 6 4 3 7 7 4 6 9 15 17 22
22 22 23 23 23 23 23 23 22 20 18 17 15 14 16 4 4 4 2 2 2 4 6 4 3 2 1 2 0 1 4 2 4 3 1 4 2 5 7 5 7 17 20 15 17
24 24 24 23 24 24 24 23 22 18 15 14 12 11 5 2 4 4 1 2 4 7 2 2 4 1 0 4 3 3 3 5 6 6 7 4 3 5 2 1 14 16 14 15 15
26 26 26 24 23 25 24 22 18 16 12 11 8 6 2 0 3 2 2 2 4 4 1 2 2 3 2 3 2 2 3 7 5 4 3 1 1 1 4 7 14 16 15 14 15
27 27 26 24 23 23 23 22 22 18 9 6 3 2 3 6 3 3 2 1 3 4 2 1 3 2 2 2 4 6 10 6 3 2 2 6 2 6 7 9 13 13 14 13 14
28 28 26 24 22 23 23 16 12 8 2 2 1 1 4 1 6 7 4 3 4 5 3 4 4 1 2 1 7 5 5 5 4 6 2 4 7 3 8 12 12 13 13 14 13
28 28 26 23 22 22 17 6 10 11 8 5 2 2 4 8 4 6 8 3 2 2 2 2 3 4 5 4 5 7 3 2 9 7 2 3 5 4 7 8 10 12 12 12 12
28 28 25 20 18 21 7 6 6 6 6 4 3 2 5 5 8 7 5 9 3 3 5 7 5 4 4 5 3 4 3 4 5 4 6 2 9 5 9 12 13 9 9 10 12
29 28 25 18 14 23 13 2 7 4 8 1 4 3 4 15 3 0 0 6 3 8 2 4 4 3 5 4 3 0 3 7 5 5 4 4 6 10 7 8 8 10 11 11 15
28 28 24 13 14 14 27 8 4 6 6 4 4 5 8 4 4 4 6 4 3 2 2 6 4 6 2 3 1 1 3 7 8 3 2 8 15 11 6 14 19 18 14 16 11
27 26 22 10 10 13 12 10 19 3 1 6 3 2 3 3 1 4 2 2 3 4 3 5 4 3 2 1 2 1 4 4 8 6 5 3 8 4 4 5 12 10 10 7 11
26 23 21 8 5 13 3 18 17 6 4 11 7 3 3 3 2 1 2 3 3 4 7 4 3 4 2 4 6 3 6 7 6 3 4 3 5 7 6 8 9 15 11 15 7
25 20 18 12 4 3 13 25 6 3 5 10 6 1 1 4 5 5 1 2 5 4 5 6 1 2 1 5 6 7 2 7 7 5 1 0 2 8 3 7 9 11 7 3 6
23 15 14 10 6 16 23 14 2 5 3 7 5 7 6 9 8 8 5 5 1 4 1 6 1 4 7 4 6 5 3 6 4 3 4 8 8 6 5 3 3 3 6 9 11
21 10 11 11 9 22 19 3 5 6 4 8 5 6 5 8 9 9 7 11 4 5 4 6 4 4 4 4 1 3 6 4 4 1 7 2 2 8 8 11 7 11 11 10 11
18 7 9 11 22 23 6 5 9 2 4 3 4 4 5 8 5 9 3 4 13 6 2 2 7 4 6 4 5 5 8 6 5 2 6 2 6 5 8 3 8 9 13 13 13
17 6 5 17 25 17 5 7 1 3 4 6 2 6 4 5 3 8 5 3 5 10 4 5 5 7 6 3 4 2 1 5 3 1 2 5 5 2 3 3 6 11 13 12 13
10 7 7 24 20 6 5 4 2 4 5 4 4 4 7 7 6 6 2 6 2 5 1 1 6 5 7 7 4 6 5 2 3 3 5 5 5 5 8 9 8 9 11 10 12
6 3 14 25 7 6 4 2 3 5 5 4 1 3 3 3 3 3 4 2 2 5 4 2 5 6 5 5 3 5 4 2 3 5 5 3 7 5 14 15 14 9 8 10 10
5 3 18 20 5 2 3 2 3 5 5 5 4 3 2 1 2 3 5 1 4 5 5 3 2 5 9 14 11 9 9 6 4 7 5 3 11 3 7 12 11 13 13 12 14
3 2 10 9 4 3 4 3 3 6 5 4 2 3 3 1 2 3 4 4 5 5 3 3 2 5 9 4 2 3 2 3 2 1 14 8 7 3 2 12 12 16 14 13 13
2 4 4 5 2 4 3 2 3 5 3 3 2 6 5 3 2 4 3 4 7 6 12 3 4 8 11 8 9 17 11 9 4 3 5 10 9 6 9 13 12 10 9 9 9
4 1 2 3 4 3 1 3 2 4 3 5 4 5 3 3 3 6 4 5 7 6 4 7 6 6 15 19 17 20 29 25 14 18 7 17 9 8 19 23 23 15 10 13 14
2 2 3 1 2 2 4 3 2 4 2 3 1 4 2 5 8 17 14 6 8 4 2 3 8 11 18 23 23 20 25 29 25 27 17 22 26 12 15 8 15 16 18 19 19
5 2 3 3 2 2 0 2 3 3 3 2 2 4 8 12 9 9 9 9 13 11 16 5 5 6 23 22 19 17 24 27 24 26 19 19 22 6 9 20 21 22 16 16 19
Wind_Direction
353 349 348 347 345 344 343 339 337 337 333 325 320 326 328 329 336 316 243 148 160 156 160 110 151 349 82 52 18 124 60 76 14 31 318 351 45 352 93 131 113 147 151 151 148
352 349 345 344 342 341 341 340 334 336 334 329 323 324 327 330 333 276 173 179 202 245 169 140 22 16 38 38 14 81 102 209 184 192 230 260 206 181 107 133 53 52 96 123 142
352 349 343 340 338 338 338 338 336 332 332 330 324 323 329 330 314 12 88 156 199 189 150 113 86 36 14 66 55 142 186 171 199 228 203 216 255 188 116 247 200 172 146 139 144
353 349 343 337 336 335 334 332 333 330 330 331 326 326 332 328 134 1 88 101 132 166 137 105 64 52 3 22 105 12 252 208 262 57 312 247 194 159 156 233 160 154 150 147 159
352 349 343 339 335 335 333 331 329 325 324 327 330 339 351 7 251 15 125 111 116 151 93 78 66 79 81 291 357 162 276 310 285 287 238 325 243 177 169 95 118 135 152 162 171
353 349 344 343 338 334 332 330 326 316 311 323 329 347 350 74 334 50 166 141 108 105 87 72 128 197 104 302 2 310 241 282 288 309 272 72 35 131 125 143 127 151 167 175 184
351 348 344 344 342 337 335 330 314 299 289 312 324 34 77 231 118 69 87 76 109 92 45 3 37 56 119 334 342 342 339 344 337 8 12 135 31 238 150 146 152 167 179 183 200
353 349 347 346 344 342 341 340 0 14 101 156 160 79 239 319 282 281 252 251 281 256 244 328 344 104 45 4 14 37 48 339 334 353 37 86 267 243 160 150 172 187 187 192 200
353 355 350 348 348 351 352 19 43 68 87 101 58 45 288 322 341 326 232 230 49 49 314 326 75 76 22 72 11 5 256 251 317 359 53 78 280 314 162 165 188 196 204 205 204
355 352 356 351 356 9 18 77 54 53 61 63 54 22 346 329 320 317 290 222 37 10 28 41 48 60 37 65 232 263 293 283 236 309 25 23 269 289 203 187 194 203 209 213 217
357 355 355 358 10 30 44 55 13 355 31 329 290 298 314 328 14 44 226 125 66 54 88 10 49 214 234 176 151 14 302 279 286 269 287 258 251 272 229 214 200 205 210 216 221
359 356 358 3 17 33 48 82 92 254 324 337 260 285 278 274 338 330 142 98 81 125 50 19 283 228 166 139 175 24 317 300 289 259 166 295 289 273 196 207 204 208 208 222 218
359 359 2 352 12 17 56 58 355 133 137 301 225 245 276 147 225 287 88 122 116 126 139 159 223 71 136 343 306 232 233 248 249 311 278 292 296 298 250 241 224 207 206 227 226
359 359 3 359 19 356 55 343 341 170 70 345 355 357 5 300 351 265 280 123 42 190 160 237 286 265 184 225 144 307 217 241 274 16 271 48 287 305 292 256 207 209 210 207 198
358 356 6 36 1 22 319 331 338 157 76 321 353 254 173 52 316 349 308 58 168 169 118 251 232 88 95 232 160 226 251 253 260 220 345 249 136 269 323 284 230 216 200 82 108
356 355 6 12 11 341 334 335 93 47 61 343 356 352 28 8 2 322 11 40 84 157 153 240 291 179 204 213 174 262 321 319 47 107 278 211 174 269 208 253 344 55 89 112 108
354 356 8 16 336 338 338 65 45 75 324 346 341 355 81 359 2 12 31 51 22 14 352 330 256 245 172 260 125 142 62 321 322 343 234 351 163 227 323 288 192 148 133 130 129
350 345 346 4 348 342 355 53 64 357 351 329 358 13 65 12 1 340 48 39 23 27 62 349 327 13 338 214 229 191 159 167 234 236 285 148 249 276 340 36 112 119 138 133 133
351 351 17 351 344 344 65 51 97 357 297 334 356 59 27 358 38 1 31 82 42 24 53 22 273 320 298 283 119 258 187 213 182 246 350 251 286 289 123 133 149 139 145 139 124
351 344 2 347 344 18 70 119 88 9 329 7 55 39 20 359 33 27 12 9 33 25 173 334 300 250 302 357 297 179 182 288 1 220 251 275 262 233 203 187 178 153 142 121 111
7 38 349 348 4 49 94 109 81 342 30 41 52 73 53 15 332 324 301 70 342 339 338 291 187 287 354 199 192 357 334 30 163 161 215 276 266 227 196 185 178 146 128 126 123
1 34 349 357 48 34 66 16 351 346 3 13 86 82 109 61 294 256 253 231 27 47 1 332 272 273 233 280 283 259 238 206 182 265 234 211 260 354 169 176 165 165 166 164 145
35 288 353 4 80 25 342 26 57 11 20 23 83 54 18 144 325 243 260 316 23 47 5 344 301 319 309 301 57 225 261 169 287 35 240 235 266 65 163 183 180 176 172 167 163
37 13 339 36 34 102 39 2 8 3 80 12 57 66 42 337 215 276 267 310 352 324 292 235 231 203 254 254 331 296 275 293 118 298 282 245 260 191 207 193 187 190 177 165 149
27 35 184 353 7 48 62 358 7 12 23 8 79 85 92 286 321 255 251 306 290 265 274 165 258 228 261 273 269 263 277 282 270 257 249 269 259 221 198 205 193 179 156 180 159
67 38 5 37 331 31 19 20 31 351 287 302 169 349 211 217 221 273 283 262 248 274 197 203 255 268 278 272 267 263 260 264 257 259 249 256 266 244 220 143 182 204 173 179 171
32 38 104 330 30 57 300 36 23 4 293 163 74 305 283 274 273 253 239 235 253 262 264 219 238 249 266 274 282 265 250 254 258 255 241 239 245 167 180 188 194 194 179 174 167
Height
812 808 805 802 799 796 794 791 788 785 782 779 776 774 771 765 761 759 757 757 756 757 757 757 757 758 760 762 762 766 798 808 795 795 788 771 770 761 759 769 768 770 775 775 785
812 808 804 800 797 794 791 790 785 783 780 777 774 772 769 764 760 758 756 757 757 757 758 759 759 758 766 766 767 779 803 793 783 780 778 769 770 766 769 772 775 778 776 778 785
812 807 802 799 797 794 791 787 784 781 778 774 772 771 768 764 762 758 757 757 757 757 758 759 759 761 767 767 770 778 791 778 775 770 769 770 767 760 772 780 772 778 780 782 787
811 807 802 797 794 792 789 786 783 779 776 773 771 769 766 765 780 758 758 758 758 758 760 761 763 769 774 776 771 781 772 771 769 766 768 768 759 765 765 763 756 768 773 781 788
809 805 801 796 791 788 785 781 778 775 773 772 770 769 767 766 763 758 759 759 759 759 760 762 767 771 778 774 772 776 771 767 764 768 765 761 763 764 766 761 760 769 778 783 787
807 803 798 794 790 785 781 779 776 773 772 770 769 769 769 770 760 758 760 760 760 761 762 763 766 766 773 774 777 772 772 771 763 764 760 763 763 756 765 765 766 773 778 783 785
806 801 796 793 789 785 781 776 772 769 769 769 769 769 770 765 759 759 760 761 761 762 763 763 764 767 769 775 772 774 780 770 763 762 762 760 774 769 763 766 771 775 777 781 783
805 800 794 790 786 782 777 772 769 765 767 769 769 769 768 760 759 759 760 761 762 762 762 763 764 767 772 772 781 789 790 801 773 767 763 766 793 764 763 766 774 773 774 777 780
803 799 792 787 783 780 775 773 771 769 769 769 770 769 766 760 759 759 760 761 762 763 763 763 765 778 779 796 810 811 814 805 792 775 767 771 784 765 763 769 774 773 773 773 776
802 797 794 788 783 780 775 774 774 772 772 771 771 773 761 767 762 759 759 761 763 763 767 770 781 794 804 810 833 818 811 804 805 785 782 785 783 769 766 765 768 772 772 771 770
802 795 790 787 784 781 774 774 779 778 775 780 778 776 769 766 761 759 760 762 764 771 788 785 799 809 802 799 801 804 808 812 799 784 783 787 787 777 766 769 771 768 768 767 765
802 795 790 786 784 782 779 783 796 798 794 775 776 775 772 770 771 762 762 769 774 789 784 798 808 795 790 796 799 802 810 815 797 784 785 785 780 767 762 758 755 757 761 759 760
803 797 792 786 785 784 785 790 791 791 799 783 775 773 771 771 771 768 763 769 779 791 793 806 793 787 791 796 801 805 809 808 808 792 783 784 790 768 755 751 750 751 751 756 758
803 798 794 789 790 788 789 790 790 789 803 789 779 775 773 771 773 764 763 767 778 789 798 797 786 789 794 798 799 812 795 796 798 803 819 783 824 783 764 759 752 747 751 744 753
804 800 796 792 794 793 793 787 785 787 828 789 781 774 773 780 779 769 764 766 784 787 794 798 788 792 797 795 789 800 784 793 794 805 805 799 817 790 767 765 758 749 748 753 754
803 800 797 795 795 794 788 784 785 806 827 802 789 791 788 787 785 778 772 767 770 784 787 790 781 784 786 779 782 779 786 789 802 814 830 802 805 799 776 764 761 758 757 757 759
803 800 798 796 796 791 787 786 809 832 806 815 808 800 803 808 800 798 800 806 812 812 811 800 791 780 776 788 784 786 812 839 829 828 827 795 802 784 770 760 753 755 756 759 760
802 800 799 797 794 789 786 798 831 821 819 805 807 806 816 816 810 808 805 816 811 814 824 825 820 789 784 787 793 800 806 835 839 836 825 791 800 779 767 761 752 751 754 757 762
801 800 799 797 792 788 793 832 837 826 819 817 812 824 827 820 816 816 819 820 822 822 831 836 823 792 783 781 783 796 810 796 812 814 826 807 783 770 766 767 764 757 759 764 764
804 802 800 796 792 789 810 832 826 820 817 813 826 822 833 833 830 829 823 823 824 821 818 822 835 802 790 781 778 786 785 807 827 825 832 811 795 789 773 769 768 768 766 767 767
806 808 802 796 793 802 833 831 824 819 817 821 824 830 836 838 835 833 827 829 821 821 816 815 828 815 798 798 797 802 804 800 811 820 822 825 804 767 758 756 765 770 771 772 776
812 818 804 798 815 834 836 829 824 826 822 822 824 828 833 835 836 835 832 821 820 821 829 823 831 834 812 788 787 794 797 802 823 813 818 809 777 760 756 756 762 766 765 767 768
828 826 809 804 833 841 834 830 828 829 829 828 829 828 831 835 842 836 829 818 820 825 829 825 838 840 816 801 789 795 788 790 799 803 794 799 778 758 761 758 760 761 763 766 768
831 832 826 824 838 838 838 836 835 828 833 831 831 834 839 840 836 837 830 822 821 823 821 824 835 832 826 815 810 805 794 790 805 818 793 779 767 768 763 761 761 762 764 765 769
838 845 845 847 843 841 839 840 837 839 835 834 837 842 845 848 846 841 831 829 822 819 822 828 833 828 815 809 807 803 792 789 803 790 802 770 773 759 748 748 744 751 760 763 769
845 847 847 850 847 841 846 847 841 842 839 839 839 841 843 849 844 839 837 838 830 822 821 827 825 815 813 799 796 800 788 776 779 771 776 766 757 742 736 748 749 753 750 757 765
846 847 847 853 850 848 849 847 845 843 838 836 841 844 841 835 831 829 830 829 822 823 821 825 822 820 805 791 791 790 776 768 763 759 757 760 729 738 739 736 737 739 748 752 761